"Pseudo-MPEC" for CCD5PV2

Created 2024 Dec 9 20:31:06 UT using Find_Orb

Click here for an explanation of pseudo-MPECs

 
 Astrometry: 
     CCD5PV2*1C2024 11 26.25661105 05 43.984+57 35 11.08   ~BQ72 21.58GVNEOCPG96
     CCD5PV2 1C2024 11 26.26306305 05 42.702+57 35 06.97   ~BQ72 21.03GVNEOCPG96
     CCD5PV2 1C2024 11 26.26952905 05 41.460+57 35 02.72   ~BQ72 21.35GVNEOCPG96
     CCD5PV2 1C2024 11 26.27601505 05 40.308+57 34 58.55   ~BQ72 21.02GVNEOCPG96
     CCD5PV2 KC2024 11 26.35352305 05 25.250+57 34 06.30   ~BQ9V       VNEOCPI52
     CCD5PV2 KC2024 11 26.36132605 05 23.820+57 34 01.00   ~BQ9V       VNEOCPI52
     CCD5PV2 KC2024 11 26.36913205 05 22.460+57 33 55.70   ~BQ9V 20.48GVNEOCPI52
     CCD5PV2 KC2024 11 26.48203605 05 00.726+57 32 38.40   ~BQD2 21.11GVNEOCPI52
     CCD5PV2 KC2024 11 26.49066505 04 58.962+57 32 32.50   ~BQD2 21.18GVNEOCPI52
     CCD5PV2 KC2024 11 26.50135005 04 57.014+57 32 24.90   ~BQD2 21.20GVNEOCPI52
     CCD5PV2 KC2024 11 29.32481104 56 02.530+56 58 11.30   ~BT8V       VNEOCPI52
     CCD5PV2 KC2024 11 29.32775504 56 01.990+56 58 09.50   ~BT8V 21.33GVNEOCPI52
     CCD5PV2 KC2024 11 29.33297204 56 00.900+56 58 03.30   ~BT8Vx      VNEOCPI52
     CCD5PV2 KC2024 11 29.33808704 56 00.060+56 58 02.00   ~BT8V 20.69GVNEOCPI52
     CCD5PV2 KC2024 11 30.28457204 53 02.37 +56 45 33.1    ~BU7V 21.7 GVNEOCPH21
     CCD5PV2 KC2024 11 30.28755404 53 01.79 +56 45 30.6    ~BU7V 21.7 GVNEOCPH21
     CCD5PV2 0C2024 12 04.34366 04 40 34.04 +55 46 34.9    ~C5Al       VNEOCPU94
     CCD5PV2 0C2024 12 04.35710 04 40 31.58 +55 46 21.8    ~C5Al 21.3 GVNEOCPU94
     CCD5PV2 KC2024 12 04.77860 04 39 15.84 +55 39 42.8    ~C5F2       VNEOCP587
     CCD5PV2 KC2024 12 04.78165 04 39 15.29 +55 39 39.9    ~C5F2 21.1 GVNEOCP587
     CCD5PV2 !C2024 12 07.29714 04 31 48.52 +54 58 16.7    ~C782 21.2 GVNEOCP673
     CCD5PV2 !C2024 12 07.31039 04 31 46.28 +54 58 03.3    ~C782       VNEOCP673
     CCD5PV2 !C2024 12 07.31688 04 31 45.11 +54 57 56.9    ~C782       VNEOCP673

Station data:
(587) Sormano  (N45.882946 E9.229180)  Italy.  Observers E. Colzani, E. Valli.
    Measurer P. Sicoli. 0.5-m f/6.8 reflector + CCD.
(673) Table Mountain Observatory, Wrightwood  (N34.381485 W117.682170)
   US/California.  Observers J. Chesley, J. Pittichova. Measurer W. M. Owen
   Jr. 0.61-m f/16 reflector + CCD.
(G96) Mt. Lemmon Survey  (N32.442729 W110.788720)  US/Arizona.  Observer E.
   J. Christensen. 1.5-m reflector + 10K CCD.
(H21) Astronomical Research Observatory, Westfield  (N39.483054 W87.968270)
   US/Illinois.  Observer R. Holmes. Measurers S. Foglia, L. Buzzi, T.
   Linder, R. Holmes. 0.76-m f/3.0 astrograph + CCD0.81-m f/4.0 astrograph +
   CCD0.61-m f/4.5 astrograph + CCD0.40-m f/5.32 astrograph + CCD.
(I52) Steward Observatory, Mt. Lemmon Station  (N32.442570 W110.788920)
   US/Arizona.  Observers T. A. Pruyne, B. M. Africano, E. J. Christensen, G.
   A. Farneth, D. C. Fuls, A. R. Gibbs, A. D. Grauer, H. Gröller, J. A.
   Johnson, R. A. Kowalski, S. M. Larson, G. J. Leonard, D. Rankin, R. L.
   Seaman, F. C. Shelly, K. W. Wierzchoś. 1.0-m prime focus + CCD.
(U94) iTelescope Observatory, Beryl Junction  (N37.737780 W113.697500)
   US/Utah.  Observer H. Sato. 0.51-m f/4.5 Corrected Dall-Kirkham +
   CCD0.51-m f/6.8 astrograph + f/4.5 focal reducer + CCD.

Orbital elements:  CCD5PV2
   Perihelion 2025 Feb 27.98955 +/- 0.665 TT = 23:44:57 (JD 2460734.48955)
Epoch 2024 Dec  7.0 TT = JDT 2460651.5                           AutoNEOCP
q   3.71896449 +/- 0.00183          (J2000 ecliptic)
H   15.61 G 0.15                    Peri.  168.11699 +/- 0.14
                                    Node   241.94790 +/- 0.008
e   1.0000000 +/- 0                 Incl.  116.62560 +/- 0.013
22 of 23 observations 2024 Nov. 26-Dec. 7; mean residual 0".35
Residuals in arcseconds: 
241126 G96  .19+  .21-    241126 I52  .55-  .13+    241204 U94  .19+  .34+    
241126 G96  .16-  .02-    241126 I52  .22+  .08-    241204 U94  .15+  .13-    
241126 G96  .16-  .04+    241129 I52  .65-  .57-    241204 587  .52+  .21-    
241126 G96  .59+  .20+    241129 I52  .48-  .09-    241204 587  .53+  .25-    
241126 I52  .72-  .07+    241129 I52( 1.3-  2.2-)   241207 673  .80-  .12-    
241126 I52  .17-  .06+    241129 I52  .20-  .42+    241207 673  .04+  .07+    
241126 I52  .96+  .05+    241130 H21  .14+  .05+    241207 673  .18-  .33+    
241126 I52  .36+  .07+    241130 H21  .00   .04-    

Ephemerides (geocentric):
Date (UTC) HH   RA             Dec           delta  r     elong  mag " sig PA
---- --------  ------------   ------------  ------ ------ -----  --- --------
2024 12 09 21  04 24 26.651   +54 12 39.31  2.9181 3.7868 147.6 21.4 .573  48
2024 12 09 22  04 24 19.650   +54 11 53.58  2.9180 3.7868 147.6 21.4 .581  48
2024 12 09 23  04 24 12.653   +54 11 07.81  2.9179 3.7867 147.6 21.4 .588  48
2024 12 10 00  04 24 05.660   +54 10 21.98  2.9178 3.7866 147.6 21.4 .595  48
2024 12 10 01  04 23 58.672   +54 09 36.12  2.9178 3.7865 147.7 21.4 .603  48
2024 12 10 02  04 23 51.689   +54 08 50.20  2.9177 3.7865 147.7 21.4 .610  48
2024 12 10 03  04 23 44.711   +54 08 04.24  2.9176 3.7864 147.7 21.4 .618  48
2024 12 10 04  04 23 37.738   +54 07 18.23  2.9175 3.7863 147.7 21.4 .625  48
2024 12 10 05  04 23 30.769   +54 06 32.18  2.9175 3.7863 147.7 21.4 .633  48
2024 12 10 06  04 23 23.805   +54 05 46.08  2.9174 3.7862 147.7 21.4 .640  48
2024 12 10 07  04 23 16.846   +54 04 59.94  2.9173 3.7861 147.7 21.4 .648  48
2024 12 10 08  04 23 09.891   +54 04 13.75  2.9173 3.7861 147.7 21.4 .656  48
2024 12 10 09  04 23 02.941   +54 03 27.52  2.9172 3.7860 147.7 21.4 .663  48
2024 12 10 10  04 22 55.996   +54 02 41.24  2.9171 3.7859 147.7 21.4 .671  48
2024 12 10 11  04 22 49.056   +54 01 54.91  2.9171 3.7859 147.7 21.4 .679  48
2024 12 10 12  04 22 42.121   +54 01 08.54  2.9170 3.7858 147.7 21.4 .687  48
2024 12 10 13  04 22 35.190   +54 00 22.12  2.9169 3.7857 147.7 21.4 .694  48
2024 12 10 14  04 22 28.264   +53 59 35.66  2.9169 3.7856 147.7 21.4 .702  48
2024 12 10 15  04 22 21.343   +53 58 49.15  2.9168 3.7856 147.7 21.4 .710  48
2024 12 10 16  04 22 14.427   +53 58 02.60  2.9167 3.7855 147.7 21.4 .718  48
2024 12 10 17  04 22 07.516   +53 57 16.00  2.9167 3.7854 147.7 21.4 .726  48
2024 12 10 18  04 22 00.609   +53 56 29.36  2.9166 3.7854 147.7 21.4 .734  48
2024 12 10 19  04 21 53.708   +53 55 42.67  2.9166 3.7853 147.7 21.4 .742  48
2024 12 10 20  04 21 46.811   +53 54 55.94  2.9165 3.7852 147.7 21.4 .750  48
2024 12 10 21  04 21 39.919   +53 54 09.16  2.9164 3.7852 147.7 21.4 .758  48
2024 12 10 22  04 21 33.032   +53 53 22.34  2.9164 3.7851 147.7 21.4 .767  48
2024 12 10 23  04 21 26.150   +53 52 35.48  2.9163 3.7850 147.6 21.4 .775  48
2024 12 11 00  04 21 19.272   +53 51 48.57  2.9163 3.7850 147.6 21.4 .783  48
2024 12 11 01  04 21 12.400   +53 51 01.61  2.9162 3.7849 147.6 21.4 .791  48
2024 12 11 02  04 21 05.532   +53 50 14.61  2.9162 3.7848 147.6 21.4 .799  48
2024 12 11 03  04 20 58.670   +53 49 27.57  2.9161 3.7847 147.6 21.4 .808  48
2024 12 11 04  04 20 51.812   +53 48 40.48  2.9161 3.7847 147.6 21.4 .816  48
2024 12 11 05  04 20 44.959   +53 47 53.35  2.9160 3.7846 147.6 21.4 .825  48
2024 12 11 06  04 20 38.112   +53 47 06.17  2.9159 3.7845 147.6 21.4 .833  48
2024 12 11 07  04 20 31.269   +53 46 18.95  2.9159 3.7845 147.6 21.4 .841  48
2024 12 11 08  04 20 24.431   +53 45 31.69  2.9158 3.7844 147.6 21.4 .850  48
2024 12 11 09  04 20 17.598   +53 44 44.38  2.9158 3.7843 147.6 21.4 .858  48
2024 12 11 10  04 20 10.770   +53 43 57.03  2.9158 3.7843 147.6 21.4 .867  48
2024 12 11 11  04 20 03.947   +53 43 09.63  2.9157 3.7842 147.6 21.4 .876  48
2024 12 11 12  04 19 57.129   +53 42 22.20  2.9157 3.7841 147.6 21.4 .884  47
2024 12 11 13  04 19 50.315   +53 41 34.71  2.9156 3.7841 147.6 21.4 .893  47
2024 12 11 14  04 19 43.507   +53 40 47.19  2.9156 3.7840 147.6 21.4 .902  47
2024 12 11 15  04 19 36.704   +53 39 59.62  2.9155 3.7839 147.6 21.4 .910  47
2024 12 11 16  04 19 29.906   +53 39 12.01  2.9155 3.7839 147.6 21.4 .919  47
2024 12 11 17  04 19 23.113   +53 38 24.35  2.9154 3.7838 147.6 21.4 .928  47
2024 12 11 18  04 19 16.325   +53 37 36.65  2.9154 3.7837 147.6 21.4 .937  47
2024 12 11 19  04 19 09.542   +53 36 48.91  2.9154 3.7837 147.6 21.4 .946  47
2024 12 11 20  04 19 02.764   +53 36 01.12  2.9153 3.7836 147.6 21.4 .955  47